Location: Bailleul
(50.3375°N, 2.8513°E)
Time: 13:26:49
(UTC+00:00)

SL-23 DEB - Pass Details

Date: 16 June 2021
Orbit: 425 x 3625 km, 51.4° (Epoch: 04 August)

Event Time Altitude Azimuth Distance (km) Brightness Sun altitude
Rises 21:31:00 0° 270° (W) 2,535 7.7 -10.2°
Reaches altitude 10° 21:32:46 10° 272° (W) 1,784 6.9 -10.3°
Maximum altitude 21:36:35 78° 360° (N) 721 4.5 -10.6°
Drops below altitude 10° 21:43:06 10° 87° (E) 2,982 7.3 -11.2°
Sets 21:46:49 0° 89° (E) 4,452 8.2 -11.4°
